| time (UTC) | temp F | wind direction | speed knots | gust knots | rain 1hr in | rain 24hr in | rain mn in | humidity % | barometer mb |
| 20260901025228 | 57 | 226 | 3.5 | 7.0 | 0.00 | 0.00 | 0.00 | 91 | 1016.3 |
| 20260901023729 | 57 | 226 | 3.5 | 7.0 | 0.00 | 0.00 | 0.00 | 91 | 1016.3 |
| 20260901022228 | 59 | 220 | 5.2 | 9.6 | 0.00 | 0.00 | 0.00 | 90 | 1016.3 |
| 20260901020728 | 59 | 228 | 5.2 | 9.6 | 0.00 | 0.00 | 0.00 | 89 | 1016.2 |
| 20260901015226 | 59 | 220 | 5.2 | 9.6 | 0.00 | 0.00 | 0.00 | 89 | 1016.1 |
| 20260901013726 | 59 | 221 | 5.2 | 9.6 | 0.00 | 0.00 | 0.00 | 89 | 1016.2 |
| 20260901012224 | 59 | 225 | 5.2 | 9.6 | 0.00 | 0.00 | 0.00 | 89 | 1016.0 |
| 20260901010724 | 59 | 220 | 5.2 | 7.0 | 0.00 | 0.00 | 0.00 | 88 | 1015.9 |
| 20260901005224 | 59 | 218 | 5.2 | 9.6 | 0.00 | 0.00 | 0.00 | 88 | 1015.9 |
| 20260901003725 | 59 | 220 | 5.2 | 7.0 | 0.00 | 0.00 | 0.00 | 88 | 1015.8 |
| 20260901002223 | 59 | 221 | 5.2 | 7.0 | 0.00 | 0.00 | 0.00 | 89 | 1015.8 |
| 20260901000723 | 57 | 219 | 5.2 | 7.0 | 0.00 | 0.00 | 0.00 | 89 | 1015.8 |
| 20260831235224 | 57 | 213 | 3.5 | 7.0 | 0.00 | 0.00 | 0.00 | 89 | 1015.8 |
| 20260831233723 | 57 | 218 | 5.2 | 7.0 | 0.00 | 0.00 | 0.00 | 88 | 1015.7 |
| 20260831232222 | 57 | 219 | 3.5 | 7.0 | 0.00 | 0.00 | 0.00 | 87 | 1015.6 |
| 20260831230722 | 57 | 217 | 5.2 | 7.0 | 0.00 | 0.00 | 0.00 | 87 | 1015.5 |
| 20260831225222 | 59 | 227 | 5.2 | 7.0 | 0.00 | 0.00 | 0.00 | 86 | 1015.6 |
| 20260831223723 | 59 | 231 | 5.2 | 9.6 | 0.00 | 0.00 | 0.00 | 85 | 1015.5 |
| 20260831222221 | 59 | 232 | 5.2 | 9.6 | 0.00 | 0.00 | 0.00 | 84 | 1015.5 |
| 20260831220721 | 59 | 235 | 5.2 | 9.6 | 0.00 | 0.00 | 0.00 | 84 | 1015.4 |
| 20260831215221 | 59 | 232 | 5.2 | 7.0 | 0.00 | 0.00 | 0.00 | 85 | 1015.2 |
| 20260831213721 | 59 | 227 | 5.2 | 7.0 | 0.00 | 0.00 | 0.00 | 84 | 1015.2 |
| 20260831212221 | 59 | 217 | 3.5 | 7.0 | 0.00 | 0.00 | 0.00 | 86 | 1014.9 |
| 20260831210721 | 59 | 217 | 3.5 | 7.0 | 0.00 | 0.00 | 0.00 | 86 | 1014.8 |
| 20260831205220 | 59 | 231 | 3.5 | 5.2 | 0.00 | 0.00 | 0.00 | 88 | 1014.6 |
| 20260831203720 | 59 | 239 | 3.5 | 7.0 | 0.00 | 0.00 | 0.00 | 87 | 1014.5 |
| 20260831202220 | 60 | 246 | 5.2 | 9.6 | 0.00 | 0.00 | 0.00 | 86 | 1014.3 |
| 20260831200720 | 60 | 247 | 7.0 | 9.6 | 0.00 | 0.00 | 0.00 | 85 | 1014.1 |
| 20260831195219 | 60 | 248 | 5.2 | 11.3 | 0.00 | 0.00 | 0.00 | 86 | 1013.9 |
| 20260831193720 | 60 | 262 | 7.0 | 11.3 | 0.00 | 0.00 | 0.00 | 84 | 1013.8 |
| 20260831192219 | 60 | 247 | 5.2 | 9.6 | 0.00 | 0.00 | 0.00 | 85 | 1013.7 |
| 20260831190719 | 62 | 248 | 9.6 | 14.8 | 0.01 | 0.00 | 0.00 | 75 | 1013.2 |
| 20260831185218 | 64 | 251 | 9.6 | 14.8 | 0.00 | 0.00 | 0.00 | 67 | 1012.7 |
| 20260831183718 | 64 | 252 | 9.6 | 14.8 | 0.00 | 0.00 | 0.00 | 68 | 1012.6 |
| 20260831182217 | 62 | 248 | 7.0 | 14.8 | 0.00 | 0.00 | 0.00 | 70 | 1012.2 |
| 20260831180717 | 64 | 251 | 9.6 | 14.8 | 0.00 | 0.00 | 0.00 | 68 | 1012.0 |
| 20260831175216 | 64 | 251 | 9.6 | 14.8 | 0.00 | 0.00 | 0.00 | 68 | 1012.0 |
| 20260831173716 | 64 | 249 | 9.6 | 14.8 | 0.00 | 0.00 | 0.00 | 65 | 1011.8 |
| 20260831172215 | 64 | 246 | 9.6 | 14.8 | 0.00 | 0.00 | 0.00 | 67 | 1011.7 |
| 20260831170716 | 64 | 254 | 9.6 | 17.4 | 0.00 | 0.00 | 0.00 | 66 | 1011.4 |
| 20260831165214 | 64 | 262 | 7.0 | 13.0 | 0.00 | 0.00 | 0.00 | 68 | 1011.3 |
| 20260831163714 | 64 | 261 | 9.6 | 13.0 | 0.00 | 0.00 | 0.00 | 71 | 1011.1 |
| 20260831162214 | 64 | 250 | 7.0 | 19.1 | 0.00 | 0.00 | 0.00 | 74 | 1011.0 |
| 20260831160714 | 64 | 235 | 11.3 | 19.1 | 0.00 | 0.00 | 0.00 | 71 | 1010.7 |
| 20260831155213 | 66 | 227 | 11.3 | 17.4 | 0.00 | 0.00 | 0.00 | 69 | 1010.6 |
| 20260831153713 | 66 | 231 | 11.3 | 17.4 | 0.00 | 0.00 | 0.00 | 71 | 1010.4 |
| 20260831152212 | 64 | 224 | 9.6 | 17.4 | 0.00 | 0.00 | 0.00 | 71 | 1010.5 |
| 20260831150712 | 64 | 228 | 9.6 | 13.0 | 0.00 | 0.00 | 0.00 | 73 | 1010.3 |
| 20260831145211 | 60 | 220 | 7.0 | 11.3 | 0.00 | 0.00 | 0.00 | 84 | 1010.1 |
| 20260831143711 | 59 | 218 | 7.0 | 14.8 | 0.00 | 0.00 | 0.00 | 86 | 1010.1 |
| 20260831142210 | 59 | 274 | 11.3 | 17.4 | 0.11 | 0.00 | 0.00 | 84 | 1010.2 |
| 20260831140711 | 62 | 280 | 9.6 | 19.1 | 0.00 | 0.00 | 0.00 | 72 | 1010.3 |
| 20260831135210 | 62 | 293 | 13.0 | 22.6 | 0.00 | 0.00 | 0.00 | 68 | 1009.9 |
| 20260831133710 | 64 | 238 | 14.8 | 22.6 | 0.01 | 0.00 | 0.00 | 63 | 1009.6 |
| 20260831132209 | 68 | 236 | 14.8 | 22.6 | 0.00 | 0.00 | 0.00 | 53 | 1009.0 |
| 20260831130709 | 69 | 226 | 13.0 | 22.6 | 0.00 | 0.00 | 0.00 | 52 | 1008.8 |
| 20260831125208 | 71 | 236 | 17.4 | 22.6 | 0.00 | 0.00 | 0.00 | 50 | 1008.6 |
| 20260831123708 | 68 | 245 | 13.0 | 19.1 | 0.00 | 0.00 | 0.00 | 59 | 1008.8 |
| 20260831122208 | 66 | 241 | 11.3 | 19.1 | 0.00 | 0.00 | 0.00 | 65 | 1008.8 |
| 20260831120707 | 66 | 245 | 13.0 | 20.9 | 0.00 | 0.00 | 0.00 | 65 | 1008.7 |
| 20260831115207 | 68 | 217 | 14.8 | 25.2 | 0.00 | 0.00 | 0.00 | 61 | 1008.7 |
| 20260831113707 | 68 | 211 | 13.0 | 22.6 | 0.00 | 0.00 | 0.00 | 61 | 1008.6 |
| 20260831112206 | 68 | 200 | 9.6 | 19.1 | 0.00 | 0.00 | 0.00 | 62 | 1008.3 |
| 20260831110706 | 68 | 206 | 11.3 | 19.1 | 0.00 | 0.00 | 0.00 | 62 | 1008.4 |
| 20260831105204 | 69 | 210 | 11.3 | 17.4 | 0.00 | 0.00 | 0.00 | 61 | 1008.5 |
| 20260831103705 | 66 | 213 | 13.0 | 22.6 | 0.00 | 0.00 | 0.00 | 67 | 1008.7 |
| 20260831102204 | 66 | 221 | 11.3 | 22.6 | 0.00 | 0.00 | 0.00 | 67 | 1008.8 |
| 20260831100705 | 68 | 219 | 11.3 | 22.6 | 0.00 | 0.00 | 0.00 | 68 | 1008.9 |
| 20260831095203 | 66 | 206 | 13.0 | 20.9 | 0.00 | 0.00 | 0.00 | 70 | 1009.0 |
| 20260831093704 | 66 | 210 | 11.3 | 19.1 | 0.00 | 0.00 | 0.00 | 71 | 1008.9 |
| 20260831092200 | 64 | 209 | 11.3 | 19.1 | 0.00 | 0.00 | 0.00 | 72 | 1009.0 |
| 20260831090700 | 64 | 213 | 13.0 | 19.1 | 0.00 | 0.00 | 0.00 | 73 | 1009.0 |
| 20260831085159 | 64 | 207 | 13.0 | 20.9 | 0.00 | 0.00 | 0.00 | 72 | 1009.0 |
| 20260831083659 | 64 | 209 | 11.3 | 20.9 | 0.00 | 0.00 | 0.00 | 73 | 1009.1 |
| 20260831082159 | 64 | 213 | 13.0 | 20.9 | 0.00 | 0.00 | 0.00 | 74 | 1008.9 |
| 20260831080658 | 64 | 212 | 11.3 | 19.1 | 0.00 | 0.00 | 0.00 | 75 | 1008.9 |
| 20260831075158 | 64 | 208 | 9.6 | 14.8 | 0.00 | 0.00 | 0.00 | 76 | 1009.1 |
| 20260831073658 | 62 | 207 | 11.3 | 17.4 | 0.00 | 0.00 | 0.00 | 78 | 1009.1 |
| 20260831072157 | 62 | 217 | 9.6 | 17.4 | 0.00 | 0.00 | 0.00 | 80 | 1009.2 |
| 20260831070656 | 62 | 213 | 11.3 | 17.4 | 0.00 | 0.00 | 0.00 | 80 | 1009.1 |
| 20260831065156 | 62 | 208 | 9.6 | 17.4 | 0.00 | 0.00 | 0.00 | 82 | 1008.9 |
| 20260831063656 | 62 | 201 | 9.6 | 17.4 | 0.00 | 0.00 | 0.00 | 82 | 1008.7 |
| 20260831062155 | 60 | 197 | 9.6 | 17.4 | 0.00 | 0.00 | 0.00 | 82 | 1008.8 |
| 20260831060655 | 60 | 198 | 9.6 | 13.0 | 0.00 | 0.00 | 0.00 | 83 | 1008.7 |
| 20260831055154 | 60 | 200 | 7.0 | 13.0 | 0.00 | 0.00 | 0.00 | 84 | 1008.7 |
| 20260831053654 | 60 | 204 | 7.0 | 14.8 | 0.00 | 0.00 | 0.00 | 85 | 1008.7 |
| 20260831052154 | 60 | 197 | 7.0 | 14.8 | 0.00 | 0.00 | 0.00 | 84 | 1008.5 |
| 20260831050654 | 60 | 194 | 7.0 | 13.0 | 0.00 | 0.00 | 0.00 | 84 | 1008.6 |
| 20260831045153 | 60 | 197 | 9.6 | 13.0 | 0.00 | 0.00 | 0.00 | 84 | 1008.6 |
| 20260831043654 | 60 | 194 | 9.6 | 13.0 | 0.00 | 0.00 | 0.00 | 84 | 1008.5 |
| 20260831042153 | 60 | 186 | 7.0 | 11.3 | 0.00 | 0.00 | 0.00 | 83 | 1008.5 |
| 20260831040653 | 60 | 187 | 5.2 | 11.3 | 0.00 | 0.00 | 0.00 | 83 | 1008.6 |
| 20260831035153 | 60 | 186 | 5.2 | 9.6 | 0.00 | 0.00 | 0.00 | 84 | 1008.8 |
| 20260831033653 | 59 | 181 | 5.2 | 7.0 | 0.00 | 0.00 | 0.00 | 86 | 1008.7 |
| 20260831032153 | 59 | 181 | 3.5 | 5.2 | 0.00 | 0.00 | 0.00 | 87 | 1008.6 |
| 20260831030653 | 59 | 189 | 3.5 | 5.2 | 0.00 | 0.00 | 0.00 | 87 | 1008.7 |